Terug naar catalogus

STARLINK-37103

ActiefCommunicatieVLEO
NORAD 68267·PAYLOAD·🇺🇸 United States

Gelanceerd Mar 19, 2026 vanaf Vandenberg Space Force Base

Loading…

Volgende Passages (komende 24 uur)

TLE

VersSource: CelesTrak SupGP

Epoch: Sep 15, 2026, 04:19 UTC

1 68267C 26055F   26258.18034722  .00049413  00000+0  14599-2 0  2585
2 68267  53.1564 154.2884 0001323  78.4053 175.8023 15.34365295    13

Volg STARLINK-37103 in realtime met AllMySat

Download on the App Store